TimeCDT,TemperatureF,Dew PointF,Humidity,Sea Level PressureIn,VisibilityMPH,Wind Direction,Wind SpeedMPH,Gust SpeedMPH,PrecipitationIn,Events,Conditions,WindDirDegrees,DateUTC
12:15 AM,68.0,41.0,37,29.72,10.0,SSW,12.7,20.7,N/A,,Clear,210,2013-03-16 05:15:00
12:35 AM,66.2,41.0,40,29.72,10.0,SSW,12.7,17.3,N/A,,Clear,200,2013-03-16 05:35:00
12:55 AM,66.2,42.8,43,29.72,10.0,SSW,13.8,-,N/A,,Clear,210,2013-03-16 05:55:00
1:15 AM,64.4,42.8,45,29.72,10.0,SSW,12.7,19.6,N/A,,Clear,210,2013-03-16 06:15:00
1:35 AM,64.4,42.8,45,29.71,10.0,SSW,13.8,19.6,N/A,,Clear,210,2013-03-16 06:35:00
1:55 AM,64.4,42.8,45,29.72,10.0,SSW,13.8,19.6,N/A,,Clear,210,2013-03-16 06:55:00
2:15 AM,64.4,42.8,45,29.72,10.0,SSW,12.7,20.7,N/A,,Clear,210,2013-03-16 07:15:00
2:35 AM,64.4,42.8,45,29.72,10.0,SSW,12.7,19.6,N/A,,Clear,210,2013-03-16 07:35:00
2:55 AM,64.4,42.8,45,29.72,10.0,SW,12.7,19.6,N/A,,Clear,220,2013-03-16 07:55:00
3:15 AM,62.6,42.8,48,29.73,10.0,SW,11.5,17.3,N/A,,Clear,230,2013-03-16 08:15:00
3:35 AM,62.6,42.8,48,29.73,10.0,SW,12.7,-,N/A,,Clear,230,2013-03-16 08:35:00
3:55 AM,62.6,42.8,48,29.74,10.0,WSW,11.5,-,N/A,,Clear,240,2013-03-16 08:55:00
4:15 AM,62.6,42.8,48,29.75,10.0,WSW,10.4,-,N/A,,Clear,250,2013-03-16 09:15:00
4:35 AM,60.8,42.8,52,29.76,10.0,WSW,9.2,-,N/A,,Clear,250,2013-03-16 09:35:00
4:55 AM,60.8,42.8,52,29.77,10.0,West,6.9,-,N/A,,Clear,260,2013-03-16 09:55:00
5:15 AM,60.8,42.8,52,29.77,10.0,West,6.9,-,N/A,,Clear,260,2013-03-16 10:15:00
5:35 AM,59.0,42.8,55,29.78,10.0,West,5.8,-,N/A,,Clear,280,2013-03-16 10:35:00
5:55 AM,59.0,42.8,55,29.79,10.0,West,6.9,-,N/A,,Clear,280,2013-03-16 10:55:00
6:15 AM,57.2,44.6,63,29.80,10.0,NW,11.5,-,N/A,,Clear,320,2013-03-16 11:15:00
6:35 AM,55.4,44.6,67,29.82,10.0,NNW,8.1,-,N/A,,Clear,330,2013-03-16 11:35:00
6:55 AM,53.6,44.6,72,29.82,10.0,NW,5.8,-,N/A,,Clear,320,2013-03-16 11:55:00
7:15 AM,51.8,44.6,76,29.83,10.0,NNW,9.2,-,N/A,,Clear,330,2013-03-16 12:15:00
7:35 AM,51.8,42.8,71,29.85,10.0,NNW,6.9,-,N/A,,Clear,340,2013-03-16 12:35:00
7:55 AM,50.0,42.8,76,29.86,10.0,NNW,13.8,-,N/A,,Clear,330,2013-03-16 12:55:00
8:15 AM,48.2,42.8,82,29.88,10.0,NNW,10.4,-,N/A,,Clear,330,2013-03-16 13:15:00
8:35 AM,48.2,42.8,82,29.90,7.0,NNW,11.5,-,N/A,,Clear,330,2013-03-16 13:35:00
8:55 AM,50.0,41.0,71,29.90,7.0,NNW,16.1,21.9,N/A,,Clear,340,2013-03-16 13:55:00
9:15 AM,46.4,41.0,81,29.91,7.0,NNW,13.8,-,N/A,,Scattered Clouds,330,2013-03-16 14:15:00
9:35 AM,46.4,41.0,81,29.92,5.0,NNW,15.0,21.9,N/A,,Haze,330,2013-03-16 14:35:00
9:55 AM,44.6,39.2,81,29.93,5.0,NNW,13.8,19.6,N/A,,Haze,330,2013-03-16 14:55:00
10:15 AM,44.6,37.4,76,29.93,5.0,NNW,8.1,-,N/A,,Haze,340,2013-03-16 15:15:00
10:35 AM,44.6,37.4,76,29.94,5.0,North,11.5,16.1,N/A,,Haze,360,2013-03-16 15:35:00
10:55 AM,44.6,37.4,76,29.94,5.0,NNW,12.7,16.1,N/A,,Haze,340,2013-03-16 15:55:00
11:15 AM,44.6,37.4,76,29.96,5.0,NNW,6.9,-,N/A,,Haze,340,2013-03-16 16:15:00
11:35 AM,44.6,37.4,76,29.96,5.0,NNW,9.2,16.1,N/A,,Haze,340,2013-03-16 16:35:00
11:55 AM,44.6,37.4,76,29.97,5.0,NNW,10.4,-,N/A,,Haze,330,2013-03-16 16:55:00
12:15 PM,46.4,37.4,71,29.97,5.0,North,8.1,-,N/A,,Haze,10,2013-03-16 17:15:00
12:35 PM,44.6,37.4,76,29.99,5.0,NW,9.2,-,N/A,,Haze,310,2013-03-16 17:35:00
12:55 PM,42.8,37.4,81,29.99,4.0,NNW,9.2,-,N/A,,Haze,330,2013-03-16 17:55:00
1:15 PM,44.6,37.4,76,29.99,4.0,NNW,6.9,-,N/A,,Haze,340,2013-03-16 18:15:00
1:55 PM,44.6,35.6,71,29.96,3.0,North,8.1,-,N/A,,Haze,10,2013-03-16 18:55:00
2:15 PM,42.8,35.6,76,29.96,3.0,North,9.2,-,N/A,,Haze,350,2013-03-16 19:15:00
2:35 PM,44.6,35.6,71,29.95,4.0,North,10.4,-,N/A,,Haze,10,2013-03-16 19:35:00
2:55 PM,44.6,35.6,71,29.95,5.0,NE,9.2,-,N/A,,Haze,40,2013-03-16 19:55:00
3:15 PM,44.6,35.6,71,29.97,5.0,NNE,8.1,-,N/A,,Haze,30,2013-03-16 20:15:00
3:35 PM,44.6,35.6,71,29.97,7.0,NE,6.9,-,N/A,,Overcast,40,2013-03-16 20:35:00
3:55 PM,44.6,35.6,71,29.96,7.0,NNE,9.2,-,N/A,,Overcast,30,2013-03-16 20:55:00
4:15 PM,42.8,33.8,70,29.97,7.0,NNE,6.9,-,N/A,,Overcast,30,2013-03-16 21:15:00
4:35 PM,42.8,33.8,70,29.97,7.0,NNE,9.2,-,N/A,,Overcast,20,2013-03-16 21:35:00
4:55 PM,42.8,33.8,70,29.96,7.0,NNE,9.2,-,N/A,,Mostly Cloudy,30,2013-03-16 21:55:00
5:15 PM,42.8,33.8,70,29.96,10.0,NNE,10.4,-,N/A,,Overcast,30,2013-03-16 22:15:00
5:35 PM,42.8,33.8,70,29.96,10.0,NE,9.2,-,N/A,,Overcast,40,2013-03-16 22:35:00
5:55 PM,42.8,33.8,70,29.97,10.0,North,10.4,-,N/A,,Overcast,10,2013-03-16 22:55:00
6:15 PM,42.8,33.8,70,29.97,10.0,NNE,8.1,-,N/A,,Overcast,30,2013-03-16 23:15:00
6:35 PM,42.8,33.8,70,29.97,10.0,NNE,8.1,-,N/A,,Overcast,20,2013-03-16 23:35:00
6:55 PM,42.8,33.8,70,29.96,10.0,NNE,8.1,-,N/A,,Overcast,30,2013-03-16 23:55:00
7:15 PM,42.8,33.8,70,29.95,10.0,NNE,9.2,-,N/A,,Overcast,30,2013-03-17 00:15:00
7:35 PM,42.8,33.8,70,29.96,10.0,NNE,10.4,-,N/A,,Overcast,20,2013-03-17 00:35:00
7:55 PM,41.0,33.8,76,29.96,10.0,NNE,8.1,-,N/A,,Overcast,30,2013-03-17 00:55:00
8:15 PM,41.0,33.8,76,29.96,10.0,NNE,10.4,-,N/A,,Overcast,20,2013-03-17 01:15:00
8:35 PM,41.0,33.8,76,29.97,10.0,NNE,9.2,-,N/A,,Overcast,30,2013-03-17 01:35:00
8:55 PM,41.0,33.8,76,29.99,10.0,NNE,9.2,-,N/A,,Overcast,30,2013-03-17 01:55:00
9:15 PM,41.0,33.8,76,29.98,10.0,NNE,13.8,17.3,N/A,,Overcast,20,2013-03-17 02:15:00
9:35 PM,41.0,33.8,76,29.99,7.0,NNE,10.4,-,N/A,Rain,Light Rain,20,2013-03-17 02:35:00
9:55 PM,39.2,33.8,81,30.00,7.0,NE,6.9,20.7,N/A,,Overcast,40,2013-03-17 02:55:00
10:15 PM,37.4,33.8,87,29.99,7.0,NNE,9.2,-,N/A,Rain,Rain,20,2013-03-17 03:15:00
11:15 PM,37.4,35.6,93,29.98,5.0,NNE,10.4,16.1,N/A,Rain,Rain,30,2013-03-17 04:15:00
11:35 PM,37.4,35.6,93,30.00,5.0,NNE,6.9,-,0.02,Rain,Rain,20,2013-03-17 04:35:00
11:55 PM,37.4,35.6,93,30.00,4.0,North,8.1,-,0.03,Rain,Light Rain,10,2013-03-17 04:55:00